This is the latest recevied weather packets stored in our database for station/object K5WNG. If no packets are shown the sender has not sent any weather packets the latest 10 day(s).
| Time | Temp. | Humidity | Pressure | Rain* | Wind** | Luminosity | Snow |
|---|---|---|---|---|---|---|---|
| 1778033417 | 25.56° C | 81% | 1006.5 hPa | 0 mm | - | 0 W/m² | - |
| 1778033117 | 25.56° C | 81% | 1006.3 hPa | 0 mm | - | 0 W/m² | - |
| 1778032820 | 26.11° C | 80% | 1006.2 hPa | 0 mm | - | 0 W/m² | - |
| 1778032517 | 26.11° C | 80% | 1006.3 hPa | 0 mm | - | 0 W/m² | - |
| 1778032220 | 26.11° C | 80% | 1006.3 hPa | 0 mm | - | 0 W/m² | - |
| 1778031917 | 26.11° C | 80% | 1006.2 hPa | 0 mm | - | 0 W/m² | - |
| 1778031617 | 26.11° C | 80% | 1006.1 hPa | 0 mm | - | 0 W/m² | - |
| 1778031321 | 26.11° C | 80% | 1006.2 hPa | 0 mm | - | 0 W/m² | - |
| 1778031017 | 26.11° C | 79% | 1006.2 hPa | 0 mm | - | 0 W/m² | - |
| 1778030718 | 26.11° C | 79% | 1006.1 hPa | 0 mm | - | 1 W/m² | - |
| 1778030421 | 26.67° C | 79% | 1006.1 hPa | 0 mm | - | 1 W/m² | - |
| 1778030121 | 26.67° C | 78% | 1006.1 hPa | 0 mm | - | 3 W/m² | - |
| 1778029818 | 26.67° C | 78% | 1006.2 hPa | 0 mm | - | 5 W/m² | - |
| 1778029521 | 26.67° C | 78% | 1006.2 hPa | 0 mm | - | 8 W/m² | - |
| 1778029221 | 26.67° C | 77% | 1006.2 hPa | 0 mm | - | 13 W/m² | - |
| 1778028918 | 27.22° C | 77% | 1006.2 hPa | 0 mm | - | 18 W/m² | - |
| 1778028618 | 27.22° C | 76% | 1006.2 hPa | 0 mm | - | 25 W/m² | - |
| 1778028318 | 27.22° C | 76% | 1006.2 hPa | 0 mm | - | 40 W/m² | - |
| 1778028018 | 27.22° C | 75% | 1006.2 hPa | 0 mm | - | 55 W/m² | - |
| 1778027718 | 27.22° C | 75% | 1006.1 hPa | 0 mm | - | 48 W/m² | - |
| 1778027419 | 27.78° C | 75% | 1006.2 hPa | 0 mm | - | 53 W/m² | - |
| 1778027118 | 27.78° C | 74% | 1006.2 hPa | 0 mm | - | 67 W/m² | - |
| 1778026818 | 27.78° C | 73% | 1006.2 hPa | 0 mm | - | 66 W/m² | - |
| 1778026516 | 27.78° C | 73% | 1006.2 hPa | 0 mm | - | 77 W/m² | - |
| 1778026219 | 27.78° C | 72% | 1006.1 hPa | 0 mm | - | 81 W/m² | - |
* Rain latest hour (hover to see other rain measurements)
** Current wind speed in m/s (hover to see current wind gust speed)